Date String (YYYY-MM-DD hh:mm:ss) UTC,Instrument flags,Ambient pressure (hPa),Sample flow (lpm),Bypass flow (lpm),Sample temperature (°C),Ambient temperature (°C),ASC tube jacket temperature (°C),LED temperature (°C),Box temperature (°C),Sample RH (%),Span deviation,Mass concentration (μg/m³),Mass concentration (μg/m³),Mass concentration (μg/m³)
DateTimeUTC,F1_M11,P_M11,Q1_M11,Q2_M11,T1_M11,T2_M11,T3_M11,T4_M11,T5_M11,U1_M11,ZSPAN_M11,X0_M11,X2_M11,X1_M11
2022-07-01 04:00:00,,0830.5,4.99,0.00,30.0,29.1,00.0,38.7,31.9,25.4,0000.0,0006.18,0002.69,0001.52
2022-07-01 04:01:00,,0830.6,5.01,0.00,30.0,29.1,00.0,38.7,31.9,25.3,0000.0,0006.14,0002.64,0001.52
2022-07-01 04:02:00,,0830.6,5.00,0.00,30.0,29.1,00.0,38.7,31.9,25.4,0000.0,0006.03,0002.60,0001.53
2022-07-01 04:03:00,,0830.7,5.00,0.00,30.0,28.9,00.0,38.7,31.9,25.4,0000.0,0006.16,0002.55,0001.53
2022-07-01 04:04:00,,0830.7,4.99,0.00,30.0,28.1,00.0,38.7,31.8,25.4,0000.0,0007.04,0002.56,0001.53
2022-07-01 04:05:00,,0830.7,5.00,0.00,29.9,27.5,00.0,38.6,31.6,25.5,0000.0,0008.42,0002.56,0001.53
2022-07-01 04:06:00,,0830.7,5.01,0.00,29.8,27.4,00.0,38.6,31.5,25.6,0000.0,0008.35,0002.52,0001.54
2022-07-01 04:07:00,,0830.8,4.99,0.00,29.7,27.4,00.0,38.6,31.4,25.7,0000.0,0008.27,0002.51,0001.55
2022-07-01 04:08:00,,0830.7,4.99,0.00,29.7,27.5,00.0,38.6,31.4,25.7,0000.0,0008.51,0002.42,0001.54
2022-07-01 04:09:00,,0830.8,4.99,0.00,29.7,27.6,00.0,38.5,31.4,25.8,0000.0,0008.64,0002.40,0001.54
2022-07-01 04:10:00,,0830.7,5.00,0.00,29.6,27.8,00.0,38.5,31.4,25.9,0000.0,0008.86,0002.41,0001.54
2022-07-01 04:11:00,,0830.7,5.00,0.00,29.6,27.9,00.0,38.5,31.4,25.7,0000.0,0009.39,0002.46,0001.54
2022-07-01 04:12:00,,0830.7,5.00,0.00,29.6,28.0,00.0,38.5,31.5,25.6,0000.0,0009.25,0002.46,0001.54
2022-07-01 04:13:00,,0830.7,4.99,0.00,29.6,28.1,00.0,38.5,31.5,25.6,0000.0,0009.19,0002.42,0001.52
2022-07-01 04:14:00,,0830.7,5.00,0.00,29.6,28.2,00.0,38.5,31.5,25.6,0000.0,0009.11,0002.43,0001.52
2022-07-01 04:15:00,,0830.8,5.00,0.00,29.6,28.3,00.0,38.5,31.5,25.6,0000.0,0008.58,0002.40,0001.53
2022-07-01 04:16:00,,0830.8,4.99,0.00,29.6,28.4,00.0,38.5,31.5,25.6,0000.0,0007.00,0002.39,0001.53
2022-07-01 04:17:00,,0830.8,5.00,0.00,29.6,28.4,00.0,38.5,31.5,25.7,0000.0,0007.43,0002.42,0001.52
2022-07-01 04:18:00,,0830.8,5.01,0.00,29.6,28.5,00.0,38.5,31.5,25.6,0000.0,0007.50,0002.44,0001.52
2022-07-01 04:19:00,,0830.8,5.00,0.00,29.6,28.5,00.0,38.5,31.6,25.6,0000.0,0008.08,0002.51,0001.51
2022-07-01 04:20:00,,0830.7,5.00,0.00,29.7,28.6,00.0,38.5,31.6,25.5,0000.0,0007.87,0002.53,0001.51
2022-07-01 04:21:00,,0830.7,5.00,0.00,29.7,28.6,00.0,38.5,31.6,25.5,0000.0,0007.84,0002.51,0001.50
2022-07-01 04:22:00,,0830.9,5.01,0.00,29.7,28.6,00.0,38.5,31.6,25.4,0000.0,0007.17,0002.51,0001.50
2022-07-01 04:23:00,,0830.9,5.00,0.00,29.7,28.6,00.0,38.5,31.6,25.5,0000.0,0007.41,0002.53,0001.49
2022-07-01 04:24:00,,0830.9,5.00,0.00,29.7,28.7,00.0,38.5,31.6,25.5,0000.0,0008.13,0002.57,0001.50
2022-07-01 04:25:00,,0830.9,5.01,0.00,29.7,28.7,00.0,38.5,31.6,25.8,0000.0,0008.62,0002.59,0001.50
2022-07-01 04:26:00,,0830.9,5.00,0.00,29.7,28.7,00.0,38.5,31.6,26.1,0000.0,0008.75,0002.67,0001.52
2022-07-01 04:27:00,,0830.9,4.99,0.00,29.7,28.7,00.0,38.5,31.6,26.2,0000.0,0008.81,0002.75,0001.54
2022-07-01 04:28:00,,0830.9,5.00,0.00,29.7,28.7,00.0,38.6,31.6,26.3,0000.0,0008.57,0002.85,0001.56
2022-07-01 04:29:00,,0830.9,5.00,0.00,29.7,28.7,00.0,38.6,31.6,26.4,0000.0,0008.70,0002.97,0001.59
2022-07-01 04:30:00,,0830.9,5.00,0.00,29.7,28.7,00.0,38.6,31.5,26.4,0000.0,0008.07,0002.99,0001.62
2022-07-01 04:31:00,,0830.9,5.01,0.00,29.7,28.6,00.0,38.6,31.5,26.4,0000.0,0008.12,0003.06,0001.66
2022-07-01 04:32:00,,0830.9,4.99,0.00,29.6,28.6,00.0,38.6,31.5,26.4,0000.0,0008.38,0003.12,0001.69
2022-07-01 04:33:00,,0830.9,5.00,0.00,29.6,28.6,00.0,38.6,31.5,26.3,0000.0,0008.38,0003.13,0001.71
2022-07-01 04:34:00,,0830.9,5.00,0.00,29.6,28.6,00.0,38.6,31.4,26.3,0000.0,0008.27,0003.13,0001.74
2022-07-01 04:35:00,,0831.0,5.00,0.00,29.6,28.5,00.0,38.6,31.4,26.4,0000.0,0008.20,0003.14,0001.77
2022-07-01 04:36:00,,0831.0,5.00,0.00,29.6,28.5,00.0,38.6,31.4,26.4,0000.0,0007.65,0003.15,0001.79
2022-07-01 04:37:00,,0831.0,5.01,0.00,29.6,28.5,00.0,38.6,31.4,26.5,0000.0,0007.66,0003.14,0001.78
2022-07-01 04:38:00,,0831.0,5.00,0.00,29.6,28.5,00.0,38.6,31.4,26.5,0000.0,0007.72,0003.13,0001.78
2022-07-01 04:39:00,,0830.9,5.00,0.00,29.6,28.5,00.0,38.6,31.4,26.5,0000.0,0007.79,0003.13,0001.80
2022-07-01 04:40:00,,0830.9,5.00,0.00,29.6,28.5,00.0,38.6,31.4,26.5,0000.0,0008.31,0003.12,0001.81
2022-07-01 04:41:00,,0830.9,5.01,0.00,29.6,28.5,00.0,38.6,31.4,26.6,0000.0,0008.47,0003.16,0001.81
2022-07-01 04:42:00,,0830.9,5.00,0.00,29.6,28.5,00.0,38.5,31.4,26.6,0000.0,0008.39,0003.17,0001.81
2022-07-01 04:43:00,,0831.0,5.00,0.00,29.6,28.5,00.0,38.5,31.4,26.5,0000.0,0008.21,0003.15,0001.81
2022-07-01 04:44:00,,0831.0,5.01,0.00,29.6,28.5,00.0,38.6,31.4,26.5,0000.0,0008.90,0003.14,0001.81
2022-07-01 04:45:00,,0831.1,4.99,0.00,29.6,28.5,00.0,38.5,31.4,26.5,0000.0,0009.18,0003.17,0001.80
2022-07-01 04:46:00,,0831.0,5.00,0.00,29.6,28.5,00.0,38.5,31.4,26.5,0000.0,0008.77,0003.18,0001.82
2022-07-01 04:47:00,,0831.0,5.00,0.00,29.6,28.5,00.0,38.5,31.4,26.5,0000.0,0008.74,0003.16,0001.81
2022-07-01 04:48:00,,0831.0,5.00,0.00,29.5,28.5,00.0,38.5,31.4,26.5,0000.0,0008.67,0003.15,0001.83
2022-07-01 04:49:00,,0831.0,5.00,0.00,29.5,28.5,00.0,38.5,31.4,26.5,0000.0,0008.53,0003.13,0001.84
2022-07-01 04:50:00,,0831.0,5.01,0.00,29.5,28.5,00.0,38.5,31.4,26.5,0000.0,0008.75,0003.15,0001.84
2022-07-01 04:51:00,,0831.0,4.99,0.00,29.5,28.5,00.0,38.5,31.4,26.5,0000.0,0009.21,0003.15,0001.85
2022-07-01 04:52:00,,0830.9,5.00,0.00,29.5,28.5,00.0,38.5,31.4,26.6,0000.0,0009.42,0003.13,0001.87
2022-07-01 04:53:00,,0830.9,4.99,0.00,29.5,28.5,00.0,38.5,31.4,26.5,0000.0,0010.26,0003.12,0001.88
2022-07-01 04:54:00,,0830.9,4.98,0.00,29.5,28.5,00.0,38.5,31.4,26.5,0000.0,0010.26,0003.12,0001.90
2022-07-01 04:55:00,,0830.9,5.00,0.00,29.5,28.5,00.0,38.5,31.4,26.5,0000.0,0010.09,0003.15,0001.91
2022-07-01 04:56:00,,0830.9,5.00,0.00,29.5,28.5,00.0,38.5,31.4,26.5,0000.0,0009.61,0003.15,0001.93
2022-07-01 04:57:00,,0830.9,5.00,0.00,29.5,28.5,00.0,38.5,31.4,26.6,0000.0,0009.77,0003.13,0001.92
2022-07-01 04:58:00,,0830.9,4.99,0.00,29.5,28.5,00.0,38.5,31.4,26.6,0000.0,0009.84,0003.16,0001.93
2022-07-01 04:59:00,,0830.9,5.01,0.00,29.5,28.5,00.0,38.5,31.4,26.6,0000.0,0010.00,0003.18,0001.95
